STARLINK-1038 (44743 NORAD) Tracking and Keplerian Element Data

This shows tracking and keplerian element data for the satellite.

Feedback or suggestion? Click here.




ElementValue
Catalog44743
NameSTARLINK-1038
Epoch Orbit1035
Epoch Day17.91667824
Epoch Year2020
RAAN214.8203
Inclination53.0042
Eccentricity0.0002004
Argument of Perigee82.4306
Mean Anonmoly199.64
Mean Motion15.0559429
Decay Rate0.00022391
L11 44743U 19074AG 20017.91667824 .00022391 00000-0 15504-2 0 9990
L22 44743 53.0042 214.8203 0002004 82.4306 199.6400 15.05594290 10355

Live tracking and technical data element details for STARLINK-1038 (NORAD 44743). STARLINK-1038 can be tracked NOW for your location showing map with azimuth and elevation plus other details from your city location.

Track the satellite on the map from your city or location and see movement details for azimuth, elevation, latitude, longitude, range, height, and movement on the map or in text.







IsCatalogInMostPopularTable: catalog: 44743, numindb: 95
Update: records affected: 1



GetName: 44743 STARLINK-1038

Hit Count: updated at: Mon, 20 Jan 2020 03:28:24 GMT